Location: Strawberry
(45.6646°N, 111.9596°W)
Time: 01:25:38
(UTC+00:00)

Vanguard 1 Rocket - Pass Details

Date: 01 October 2022
Orbit: 650 x 4225 km, 34.3° (Epoch: 05 December)

Event Time Altitude Azimuth Distance (km) Brightness Sun altitude
Rises 02:33:47 0° 223° (SW) 8,227 12.7 -15.5°
Reaches altitude 10° 02:40:40 10° 216° (SW) 6,849 12.1 -16.6°
Maximum altitude 02:57:58 35° 160° (SSE) 3,685 10.1 -19.6°
Enters shadow 03:03:41 26° 122° (ESE) 3,557 9.8 -20.5°
